Temperature
17 17 17 17 17 14 14 13 13 14 13 14 14 14 16 17 17 16 16 16 16 15 15 14 14 14 13 13 13 12 12 11 11 10 10 10 10 10 10 10 10 10 10 10
18 17 17 18 17 16 15 14 14 13 13 14 16 16 16 17 17 17 17 16 16 16 15 15 14 14 14 13 13 12 12 11 11 10 10 10 10 10 10 10 10 10 10 10
17 17 18 18 18 17 16 15 15 15 15 15 16 16 17 18 18 17 17 17 16 16 15 15 14 14 14 13 13 12 11 11 11 11 10 10 10 10 10 10 10 10 10 10
14 18 19 18 18 17 17 17 15 15 15 16 17 18 18 19 18 18 17 17 16 16 15 15 15 14 14 13 13 12 11 11 11 11 10 10 10 10 10 10 10 10 10 10
13 16 17 18 19 18 19 19 18 16 16 17 17 17 18 20 19 18 18 17 17 16 15 15 15 14 14 13 13 12 12 11 11 11 10 10 10 10 10 10 10 10 10 10
13 17 18 19 19 19 19 19 19 18 18 17 16 14 16 20 19 19 18 17 17 16 16 15 15 15 14 14 13 12 12 11 11 11 10 10 10 10 10 10 10 10 10 10
14 16 16 16 18 19 18 18 19 19 19 18 16 17 20 20 19 19 18 18 17 16 16 15 15 15 14 14 13 13 12 12 11 11 11 10 10 10 10 10 10 10 10 10
12 16 17 16 17 16 17 18 19 19 20 19 20 20 20 20 19 19 18 18 17 17 16 16 15 15 15 14 14 13 12 12 12 11 11 11 11 10 10 10 10 10 10 10
13 15 14 14 14 15 16 17 18 18 19 20 20 20 20 20 19 19 18 18 17 17 16 16 16 15 15 15 14 13 13 13 12 12 11 11 11 11 10 10 10 10 10 10
13 14 14 13 14 15 16 16 17 18 19 19 19 20 20 19 19 19 18 18 17 17 17 17 16 16 16 15 14 14 13 13 12 12 12 11 11 11 11 10 10 10 10 10
13 13 13 14 13 14 16 17 18 18 18 18 19 19 19 19 19 19 18 18 17 17 17 17 17 16 16 15 15 14 14 13 13 13 12 12 11 11 11 11 10 10 10 10
13 12 11 12 12 13 15 16 16 17 18 17 18 18 18 18 18 18 18 18 17 17 17 17 17 16 16 16 15 15 15 14 14 13 13 12 12 12 11 11 11 11 11 10
11 12 11 11 12 13 14 14 14 15 15 16 16 16 17 17 17 17 17 17 17 17 17 17 17 17 17 16 16 15 15 15 14 14 13 13 12 12 12 11 11 11 11 11
12 12 11 11 11 12 13 13 13 14 14 14 15 15 15 16 16 16 16 16 17 17 17 17 17 17 17 16 16 16 16 15 15 14 14 13 13 12 12 12 11 11 11 11
11 11 11 10 11 11 12 13 14 13 13 13 14 14 14 14 14 14 15 15 16 16 16 16 16 17 16 16 16 16 16 16 15 15 14 14 13 13 12 12 12 12 11 11
10 10 10 10 10 10 11 12 12 11 11 11 12 12 12 12 12 13 13 14 14 15 15 15 15 15 16 16 16 16 16 16 16 15 15 14 14 13 13 13 12 12 12 12
10 9 9 9 9 9 9 9 9 9 9 9 9 10 10 11 12 12 12 12 12 12 12 13 14 14 14 15 15 15 16 16 15 15 15 15 15 14 14 13 13 13 12 12
10 9 9 8 8 8 8 8 8 8 8 8 8 8 9 9 9 9 10 10 11 11 12 12 12 13 13 14 14 15 15 15 15 15 15 15 15 15 14 14 13 13 13 12
8 8 8 8 8 8 7 7 7 7 7 7 7 7 7 7 7 8 8 9 9 10 10 10 10 11 12 13 13 13 14 14 15 15 15 15 15 15 14 14 14 13 13 13
8 7 7 7 7 7 7 6 6 6 6 6 7 7 7 7 7 7 7 7 6 7 7 8 9 9 10 11 11 12 13 13 14 14 14 14 15 15 15 14 14 14 13 13
7 7 7 7 6 6 6 6 6 6 6 6 6 6 5 5 6 6 6 6 6 6 6 7 7 8 8 9 10 10 11 12 12 13 13 13 14 14 14 14 14 14 14 13
7 7 6 6 6 6 6 5 5 5 5 5 5 5 5 5 5 5 5 5 5 5 5 6 6 6 6 7 8 9 9 10 10 11 11 12 12 13 13 14 14 14 14 14
6 6 6 6 6 5 5 5 5 5 5 5 5 5 5 4 4 4 4 4 5 5 5 5 5 5 5 6 7 7 8 8 8 9 9 10 11 11 12 13 13 13 13 13
6 6 6 6 5 5 5 5 5 5 5 5 5 4 4 4 4 4 4 4 4 4 4 4 4 4 5 5 5 6 6 6 7 7 8 8 9 10 10 11 12 13 13 13
6 6 6 6 5 5 5 5 5 5 5 5 5 5 4 4 4 4 4 4 4 4 4 4 4 4 4 4 4 4 4 5 5 5 6 7 7 8 9 10 10 11 12 12
6 6 6 6 6 5 5 5 5 5 5 5 5 5 5 4 4 4 4 4 4 4 4 4 4 4 4 4 4 3 4 4 4 4 5 5 6 7 7 8 9 10 11 11
6 6 6 6 6 5 5 5 5 5 5 5 5 5 4 4 4 4 4 4 4 4 4 3 3 3 3 3 3 3 3 3 3 3 4 4 5 5 6 7 8 9 10 10
Wind_Speed
3 3 4 5 5 7 8 8 8 8 8 13 11 9 9 8 7 7 8 8 8 7 6 6 6 5 4 4 4 3 3 4 5 6 6 6 7 7 7 7 8 7 7 8
3 3 3 4 6 7 7 6 8 8 10 11 8 5 6 7 8 8 9 9 8 8 7 6 6 6 5 4 3 2 3 4 5 6 6 6 7 7 7 7 7 7 7 7
2 4 3 5 6 6 6 8 8 8 9 6 5 6 7 8 9 10 10 9 9 8 7 7 6 6 5 4 2 2 3 4 5 5 6 6 7 7 7 7 6 7 7 7
2 2 2 6 3 6 5 7 9 9 10 8 8 7 7 7 9 10 9 9 8 7 6 6 4 4 4 2 2 2 4 5 5 5 6 6 6 7 6 5 6 6 7 8
3 1 6 7 2 5 2 5 4 7 9 6 2 4 6 7 9 11 10 9 8 7 6 5 5 4 3 3 2 3 5 5 5 4 5 6 6 7 5 5 5 5 5 7
4 2 3 5 3 1 3 5 5 4 6 1 4 2 6 6 6 9 8 7 7 5 4 5 5 4 5 4 4 6 6 5 5 4 4 5 6 5 4 4 5 5 5 6
4 3 7 7 4 2 3 5 6 3 4 5 6 7 5 5 4 6 7 7 6 6 5 6 5 5 6 6 7 7 5 4 4 4 4 4 4 4 4 5 5 5 6 6
5 3 5 5 1 2 4 5 5 5 4 5 8 8 7 7 6 6 6 6 6 6 7 6 5 6 7 8 8 5 4 4 4 4 3 2 3 4 4 5 5 6 6 6
7 5 1 4 2 5 5 5 5 5 6 5 6 6 6 6 7 6 7 7 6 7 7 6 6 8 9 9 7 5 5 6 5 4 3 2 2 3 3 3 4 4 5 5
2 3 2 4 5 7 6 4 6 6 6 4 4 6 6 6 6 6 6 6 5 6 7 8 7 9 10 8 6 6 7 7 5 5 5 3 2 2 2 2 3 3 4 5
3 0 2 4 9 10 9 8 9 9 9 8 7 7 6 6 6 6 6 5 5 7 9 10 8 9 9 8 7 7 8 7 6 6 5 5 4 4 4 4 4 3 3 3
5 3 3 1 7 9 9 11 11 11 12 11 9 9 8 6 6 6 6 5 5 7 9 10 9 9 9 8 9 9 8 8 6 5 5 5 4 4 7 8 8 8 7 5
3 2 3 2 6 9 8 9 9 10 11 11 11 10 9 8 8 7 7 7 7 9 9 10 9 10 10 8 9 10 10 9 6 6 6 5 5 5 5 5 7 8 8 8
2 5 5 5 5 7 8 7 8 9 10 10 11 11 11 10 10 11 11 10 9 8 8 8 8 10 10 7 9 10 11 11 9 7 7 6 6 6 5 4 4 4 5 7
7 7 7 5 5 7 7 7 10 12 12 13 12 13 14 14 13 13 13 13 11 9 9 8 8 10 9 6 8 11 10 9 8 8 7 7 6 6 6 6 5 5 4 4
8 8 7 7 7 7 9 11 12 11 11 12 13 13 13 11 10 11 13 14 14 12 12 11 11 12 11 7 7 8 9 14 12 8 7 7 7 7 7 7 6 6 6 6
8 6 6 6 7 7 8 8 7 7 9 11 11 11 12 12 13 15 15 14 12 11 12 13 14 15 13 10 8 7 8 10 13 9 8 9 8 9 8 8 8 7 8 7
8 8 7 7 6 6 6 6 7 7 8 8 9 10 12 13 14 14 14 13 13 13 14 16 17 17 15 13 10 8 7 8 8 9 10 9 9 9 9 8 9 9 8 6
9 8 7 7 6 5 5 5 5 6 6 7 8 9 9 10 10 11 12 12 15 17 18 19 24 19 16 17 16 9 9 9 8 9 9 11 11 9 9 9 10 10 9 7
8 8 7 6 5 5 4 3 4 5 6 6 7 8 9 10 11 11 11 9 9 11 14 18 17 15 16 18 19 11 10 10 10 9 9 9 10 10 10 10 11 10 10 9
8 7 6 5 4 3 3 3 3 4 5 6 6 6 7 8 9 8 9 9 11 13 15 19 15 14 15 19 19 12 11 10 10 9 9 10 10 11 11 11 11 11 10 10
7 6 5 4 2 1 1 1 2 3 4 4 5 5 6 7 8 8 7 6 9 17 13 10 11 18 24 21 13 13 12 12 10 9 9 9 9 10 11 11 11 11 11 10
5 5 4 3 2 1 2 2 2 2 3 4 5 5 5 6 5 5 8 8 8 17 13 9 18 26 26 15 13 14 14 13 12 11 10 10 9 10 10 11 11 11 10 11
5 5 4 3 2 2 3 3 3 4 4 5 5 6 5 5 6 5 5 12 16 17 10 14 22 25 22 12 12 13 13 13 13 13 12 10 10 9 9 9 9 9 10 11
5 5 4 4 4 4 5 4 4 4 4 5 6 7 5 4 5 7 8 9 14 15 10 15 21 22 14 10 11 12 12 13 14 14 13 12 10 10 9 9 9 9 9 10
5 5 5 6 5 5 4 3 3 4 4 5 6 6 6 5 6 7 7 9 11 14 11 9 11 13 10 10 11 12 12 13 14 13 14 14 13 11 10 9 11 9 9 9
4 4 3 3 4 4 4 4 4 5 5 5 6 7 7 7 7 7 9 8 9 9 9 9 9 9 10 10 11 11 11 11 12 12 13 13 13 12 11 11 10 10 9 8
Wind_Direction
220 223 178 209 203 178 187 196 210 246 253 271 275 257 251 243 243 251 264 268 265 263 271 279 281 283 281 284 298 313 329 332 324 322 327 334 339 339 339 343 346 343 347 347
15 1 201 249 246 207 215 215 235 267 278 263 268 259 254 244 237 245 256 260 263 263 266 270 269 270 270 274 286 303 316 316 320 327 332 337 337 337 342 345 345 350 351 346
323 329 35 290 251 200 217 214 204 234 252 278 277 262 250 240 232 237 245 251 254 255 252 258 260 252 251 257 264 292 304 311 319 325 329 331 335 342 343 342 346 349 347 346
81 47 260 247 245 192 221 251 220 238 260 265 254 268 263 236 226 237 242 243 244 243 247 255 252 243 235 229 238 278 296 303 311 320 322 328 337 340 337 336 341 341 342 343
106 122 291 302 250 177 196 297 239 238 274 287 287 339 303 242 216 225 231 231 232 230 230 243 247 230 199 217 239 270 282 288 298 310 317 327 334 332 330 333 338 339 338 345
120 144 226 255 296 186 113 314 291 244 283 258 112 13 285 287 235 230 231 226 226 226 222 237 239 195 191 219 236 254 261 270 285 296 305 313 319 321 323 324 324 331 341 346
146 205 261 265 284 99 95 272 298 285 277 183 199 220 250 301 267 234 229 225 219 213 223 235 218 182 206 224 237 244 252 265 280 288 291 296 313 321 327 332 338 344 341 340
148 177 255 326 72 141 237 285 303 298 287 236 245 266 274 282 271 249 235 228 212 212 235 237 201 191 217 234 239 237 241 255 269 278 286 306 317 325 337 344 346 346 344 342
178 187 238 352 338 314 298 293 310 311 310 290 275 284 281 274 268 255 239 233 218 216 238 243 213 201 221 239 229 220 231 246 257 266 270 277 292 311 329 343 343 338 340 339
168 175 153 31 357 346 338 330 327 332 337 350 319 310 304 292 282 268 255 244 231 222 236 248 229 216 227 236 213 209 229 243 246 252 264 265 253 254 272 296 312 322 327 327
171 235 360 18 9 352 354 14 21 18 20 14 1 345 328 312 298 282 271 261 239 231 241 250 244 232 233 225 204 213 230 239 240 238 246 257 252 236 236 239 225 247 272 284
185 183 161 31 351 352 12 23 21 23 23 18 13 355 346 333 323 313 300 291 272 255 251 256 252 247 243 220 202 209 227 235 233 231 235 240 253 272 243 236 249 246 240 241
190 175 126 71 12 6 19 23 25 29 26 18 13 7 2 351 342 339 331 319 296 278 268 264 258 255 251 224 205 210 222 229 225 222 225 228 230 241 270 277 255 252 251 249
94 128 93 52 21 11 19 23 33 36 29 23 16 12 10 6 2 360 348 332 317 306 296 285 273 268 265 234 214 220 225 230 224 222 220 219 221 224 226 242 271 278 263 252
67 89 104 94 60 40 33 38 44 35 25 21 18 16 12 8 3 356 349 346 344 342 334 325 309 297 296 264 233 230 228 229 225 221 218 216 216 217 218 224 234 249 265 271
104 90 92 86 69 51 44 42 40 29 20 17 16 12 7 2 357 356 358 360 -0 356 349 344 333 321 318 300 268 248 239 236 225 219 217 215 212 214 220 222 227 233 240 240
129 118 104 87 69 55 46 40 36 24 17 16 10 4 4 6 7 5 1 359 358 356 355 352 340 334 331 321 299 275 255 245 233 225 220 218 215 216 218 218 222 227 234 226
122 124 126 116 100 77 52 38 30 23 17 8 5 8 11 11 4 356 351 351 357 2 2 352 345 341 337 332 321 300 278 256 237 230 227 223 221 219 215 216 221 226 234 229
119 116 109 101 96 86 64 39 22 13 8 7 9 9 7 3 356 351 350 358 4 359 350 344 345 346 340 338 335 315 300 279 258 243 234 229 226 222 218 219 222 223 224 217
119 115 108 97 85 80 64 35 18 15 7 6 8 8 5 359 353 351 350 355 356 342 335 343 346 344 342 340 339 327 315 298 278 261 244 234 230 227 224 222 223 223 222 218
132 127 120 112 97 78 62 34 21 8 356 358 2 354 344 337 341 345 349 349 342 337 342 348 348 343 344 344 338 334 326 316 301 283 262 247 239 235 230 226 224 224 223 221
146 145 144 138 122 68 360 352 343 333 333 335 336 335 336 334 334 334 329 318 322 337 345 340 340 346 351 348 341 338 334 327 316 306 291 271 253 244 238 232 228 226 223 220
160 165 167 173 182 235 297 288 271 283 297 306 311 314 311 305 305 316 324 321 323 336 341 332 341 348 352 350 343 342 339 335 328 319 307 294 277 261 250 242 235 230 224 221
174 185 195 197 185 210 258 265 271 271 274 281 281 281 284 297 303 288 281 312 327 331 330 329 339 346 349 345 341 341 340 337 333 327 320 311 300 285 269 257 247 238 231 225
185 195 201 198 208 225 238 259 286 287 288 287 288 284 274 255 265 291 300 306 318 325 320 325 333 338 340 332 334 335 336 334 332 331 327 319 312 303 291 277 263 252 241 234
190 203 212 213 218 229 235 243 257 272 280 290 295 292 290 284 276 282 291 298 302 314 316 312 315 322 324 323 324 326 328 329 330 329 326 324 317 310 303 296 282 269 256 245
202 208 218 242 247 229 224 231 246 264 268 271 284 290 294 296 296 296 296 298 300 303 303 306 308 310 312 314 316 318 320 322 324 326 326 323 320 314 308 300 293 284 271 256
Height
1548 1547 1549 1550 1551 1557 1561 1562 1566 1558 1554 1541 1534 1531 1529 1529 1530 1531 1532 1532 1531 1531 1530 1529 1527 1526 1524 1522 1519 1517 1514 1511 1508 1504 1501 1498 1495 1491 1488 1485 1481 1479 1476 1474
1547 1546 1547 1548 1547 1550 1554 1554 1555 1553 1548 1531 1529 1528 1527 1527 1527 1528 1529 1529 1529 1529 1528 1527 1526 1524 1523 1521 1519 1516 1514 1511 1507 1504 1502 1498 1495 1492 1489 1485 1482 1479 1476 1474
1555 1550 1547 1550 1542 1545 1546 1545 1546 1548 1539 1529 1528 1526 1525 1524 1525 1525 1526 1527 1527 1527 1526 1526 1525 1523 1522 1520 1518 1516 1513 1510 1507 1505 1502 1499 1495 1492 1489 1486 1483 1480 1477 1474
1560 1552 1555 1546 1534 1536 1538 1537 1537 1535 1530 1527 1526 1524 1523 1523 1523 1523 1524 1524 1524 1525 1524 1524 1523 1522 1520 1519 1517 1515 1513 1510 1508 1505 1502 1499 1496 1493 1490 1486 1483 1480 1477 1474
1564 1560 1555 1540 1532 1533 1535 1535 1530 1530 1526 1525 1524 1523 1521 1520 1520 1520 1521 1522 1522 1523 1522 1522 1521 1520 1519 1517 1516 1514 1512 1510 1507 1505 1502 1499 1496 1493 1490 1487 1484 1481 1478 1475
1563 1556 1555 1541 1531 1530 1534 1537 1528 1526 1525 1524 1524 1528 1523 1519 1518 1518 1519 1520 1520 1521 1520 1520 1519 1518 1517 1516 1514 1513 1511 1509 1507 1505 1502 1499 1496 1493 1491 1488 1485 1482 1479 1476
1560 1558 1551 1535 1530 1531 1543 1542 1527 1525 1524 1523 1522 1522 1520 1518 1517 1517 1518 1518 1518 1518 1518 1518 1517 1516 1515 1514 1513 1512 1510 1508 1506 1504 1502 1499 1496 1494 1491 1488 1485 1482 1479 1476
1559 1556 1549 1533 1531 1535 1535 1528 1526 1525 1523 1521 1520 1518 1517 1516 1516 1516 1516 1516 1516 1516 1516 1516 1515 1515 1513 1512 1512 1510 1509 1507 1506 1504 1501 1499 1496 1494 1491 1488 1486 1483 1480 1477
1543 1544 1538 1534 1533 1532 1529 1527 1525 1523 1522 1520 1518 1517 1515 1515 1514 1514 1514 1514 1514 1514 1513 1513 1513 1512 1511 1511 1510 1508 1507 1506 1504 1503 1501 1498 1496 1494 1491 1489 1486 1483 1481 1478
1537 1535 1534 1533 1531 1528 1526 1525 1524 1522 1520 1519 1517 1516 1514 1513 1513 1512 1512 1512 1512 1511 1511 1510 1510 1509 1509 1508 1507 1506 1505 1504 1503 1501 1500 1498 1495 1493 1491 1489 1486 1484 1481 1479
1532 1532 1531 1531 1529 1527 1526 1524 1522 1521 1519 1518 1516 1514 1513 1512 1511 1510 1510 1510 1509 1509 1508 1508 1507 1507 1506 1505 1505 1503 1502 1501 1500 1499 1498 1496 1494 1492 1490 1489 1486 1484 1482 1480
1528 1529 1530 1531 1529 1527 1525 1523 1522 1520 1519 1517 1516 1514 1512 1511 1509 1508 1507 1507 1506 1505 1504 1504 1504 1503 1503 1502 1501 1500 1499 1498 1497 1496 1495 1494 1492 1491 1489 1487 1486 1484 1482 1480
1525 1526 1527 1529 1528 1526 1525 1524 1522 1521 1519 1517 1515 1513 1511 1510 1508 1506 1505 1503 1502 1501 1500 1499 1499 1498 1498 1498 1497 1496 1495 1494 1493 1493 1492 1491 1490 1488 1487 1486 1485 1483 1481 1480
1522 1524 1526 1527 1527 1526 1525 1524 1523 1521 1519 1517 1515 1513 1511 1508 1506 1504 1502 1500 1499 1497 1496 1495 1494 1493 1493 1493 1492 1491 1490 1490 1489 1488 1488 1487 1486 1485 1484 1483 1482 1481 1480 1479
1521 1523 1524 1526 1526 1525 1524 1523 1521 1519 1518 1516 1514 1512 1509 1507 1505 1502 1500 1498 1495 1493 1491 1489 1488 1487 1487 1486 1485 1485 1484 1484 1484 1483 1483 1482 1482 1481 1481 1480 1479 1478 1478 1477
1520 1522 1523 1524 1524 1523 1522 1521 1519 1518 1517 1516 1513 1511 1509 1507 1505 1502 1499 1495 1492 1489 1487 1485 1483 1482 1480 1479 1478 1477 1477 1477 1477 1477 1477 1477 1476 1476 1476 1475 1475 1474 1474 1474
1518 1520 1522 1522 1522 1522 1521 1521 1520 1519 1517 1515 1513 1511 1509 1506 1503 1499 1496 1494 1491 1488 1485 1481 1478 1476 1474 1472 1471 1470 1469 1469 1470 1470 1470 1470 1470 1470 1470 1470 1469 1469 1469 1470
1517 1518 1520 1521 1521 1521 1521 1521 1520 1518 1517 1515 1513 1510 1507 1504 1501 1498 1495 1492 1489 1486 1482 1478 1475 1472 1469 1466 1464 1462 1461 1461 1461 1461 1461 1462 1462 1463 1463 1463 1463 1463 1464 1464
1516 1517 1519 1520 1520 1520 1520 1520 1519 1518 1516 1514 1512 1509 1507 1504 1501 1498 1494 1490 1485 1481 1477 1474 1471 1467 1464 1461 1458 1456 1454 1453 1452 1452 1453 1453 1454 1454 1455 1455 1456 1456 1457 1457
1515 1517 1518 1519 1519 1519 1519 1519 1518 1517 1515 1513 1511 1509 1506 1503 1500 1497 1493 1490 1486 1482 1478 1473 1468 1464 1460 1456 1453 1450 1447 1445 1444 1443 1444 1444 1444 1445 1446 1447 1447 1448 1449 1450
1513 1515 1516 1517 1518 1518 1518 1517 1516 1515 1514 1512 1510 1508 1505 1503 1500 1496 1492 1488 1485 1481 1476 1472 1466 1461 1457 1453 1448 1445 1441 1439 1436 1435 1435 1435 1435 1436 1436 1437 1438 1439 1440 1441
1512 1513 1515 1515 1516 1516 1516 1516 1515 1514 1513 1511 1509 1507 1504 1501 1498 1495 1492 1488 1484 1479 1475 1470 1465 1460 1456 1450 1445 1441 1437 1433 1430 1428 1426 1426 1425 1426 1426 1427 1428 1429 1430 1431
1510 1511 1512 1513 1514 1514 1514 1514 1513 1512 1511 1509 1507 1505 1503 1500 1497 1493 1490 1486 1482 1478 1474 1469 1464 1459 1454 1448 1443 1438 1433 1429 1425 1422 1420 1418 1417 1416 1416 1417 1418 1419 1420 1421
1507 1509 1510 1511 1512 1512 1512 1512 1511 1510 1509 1507 1505 1503 1501 1498 1495 1492 1489 1485 1481 1477 1472 1467 1462 1457 1451 1446 1440 1435 1430 1425 1420 1416 1413 1411 1409 1407 1407 1407 1407 1408 1409 1411
1505 1507 1508 1509 1509 1509 1509 1509 1508 1507 1506 1505 1503 1501 1499 1496 1493 1490 1486 1483 1479 1474 1470 1465 1460 1455 1449 1444 1438 1433 1428 1422 1418 1413 1408 1404 1401 1399 1398 1397 1397 1398 1399 1400
1502 1504 1505 1505 1506 1506 1505 1505 1504 1504 1502 1501 1499 1498 1496 1493 1490 1487 1483 1480 1476 1471 1467 1462 1457 1452 1447 1441 1436 1431 1425 1419 1414 1408 1403 1399 1395 1391 1389 1388 1387 1387 1388 1389
1499 1500 1501 1502 1502 1502 1502 1501 1501 1500 1499 1497 1495 1493 1491 1489 1486 1482 1479 1475 1471 1467 1462 1458 1453 1448 1443 1438 1433 1427 1422 1417 1411 1405 1399 1394 1389 1385 1381 1379 1378 1377 1377 1378